Location: �chenoz-la-M�line
(47.6009°N, 6.1354°E)
Time: 13:00:20
(UTC+00:00)

Cosmos 2360 Rocket - Pass Details

Date: 27 January 2021
Orbit: 832 x 846 km, 71.0° (Epoch: 03 March)

Event Time Altitude Azimuth Distance (km) Brightness Sun altitude
Exits shadow 04:15:05 14° 356° (N) 2,188 4.3 -29.1°
Drops below altitude 10° 04:16:14 10° 5° (N) 2,467 4.7 -28.9°
Sets 04:19:23 0° 22° (NNE) 3,408 5.7 -28.4°
